Lexington Weather

Lexington, Massachusetts, USA

70°F
8/17/2022 5:59pm 
  • Lexington Conditions: Overcast
  • Temperature: 70.3°F / 21.3°CColder 0.2°F than last hour.
  • Dew Point: 59.7°FIncreased 2.3°Fsince last hour.
  • Relative Humidity: 69%Increased 6.0% since last hour.
  • Wind: Calm, 10-min avg: Calm, gust: None
  • Barometer: 29.86 inFalling 0.02  inHg/hr Falling Slowly
  • Visibility: 10 miles
  • Rain Today: 0.00 in
  •   

Regional Weather Roundup
for Boston, MA

        
000
ASUS41 KBOX 160410
RWRBOX

REGIONAL WEATHER ROUNDUP
NATIONAL WEATHER SERVICE BOSTON/NORTON MA
1200 AM EDT TUE AUG 16 2022

NOTE:  "FAIR" INDICATES FEW OR NO CLOUDS BELOW 12,000 FEET WITH NO 
SIGNIFICANT WEATHER AND/OR OBSTRUCTIONS TO VISIBILITY.

MAZALL-160500-
EASTERN MASSACHUSETTS
  
CITY           SKY/WX    TMP DP  RH WIND       PRES   REMARKS
BOSTON         MOCLDY    67  62  84 NE3       30.05S                  
BEVERLY        PTCLDY    62  58  86 CALM      30.04S                  
LAWRENCE       PTCLDY    66  57  72 CALM      30.07R                  
BEDFORD        PTCLDY    63  56  78 CALM      30.04R                  
BLUE HILL      NOT AVBL                                               
NORWOOD        PTCLDY    61  54  77 CALM      30.04R                  
MARSHFIELD     PTCLDY    63  61  94 CALM      30.04R                  
PLYMOUTH       PTCLDY    64  60  87 CALM      30.04S                  
TAUNTON          N/A    N/A N/A N/A MISG      30.04R                  
NEW BEDFORD    PTCLDY    61  59  93 N3        30.03R                  
$$

MAZALL-160500-
CAPE COD AND THE ISLANDS
  
CITY           SKY/WX    TMP DP  RH WIND       PRES   REMARKS
FALMOUTH       CLEAR     64  59  82 E5        30.03S                  
HYANNIS        MOCLDY    65  60  84 N3        30.02S                  
CHATHAM        MOCLDY    67  59  75 N3        30.03S                  
NANTUCKET      MOCLDY    65  61  87 NE8       30.02R                  
MARTHAS VNYRD  PTCLDY    60  57  89 NE3       30.02S                  
$$
 
MAZALL-160500-
CENTRAL AND WESTERN MASSACHUSETTS
  
CITY           SKY/WX    TMP DP  RH WIND       PRES   REMARKS
WORCESTER      CLEAR     66  49  54 NE5       30.07R                  
FITCHBURG      PTCLDY    60  50  69 NW3       30.07R                  
ORANGE         CLEAR     58  51  78 CALM      30.07R                  
SPRINGFIELD    CLEAR     59  56  90 CALM      30.02R                  
WESTFIELD      CLEAR     62  54  74 CALM      30.04R                  
NORTH ADAMS    PTCLDY    63  55  75 E3        30.05R                  
PITTSFIELD     MOCLDY    63  54  72 CALM      30.05R                  
$$
 
RIZALL-160500-
RHODE ISLAND
  
CITY           SKY/WX    TMP DP  RH WIND       PRES   REMARKS
PROVIDENCE     PTCLDY    65  57  75 NE3       30.04R                  
NEWPORT        CLEAR     59  59 100 CALM      30.03S                  
BLOCK ISLAND   CLEAR     66  56  70 E6        30.03S                  
SMITHFIELD     CLEAR     60  54  80 NE5       30.06R                  
WESTERLY       CLEAR     61  57  87 N5        30.03R                  
$$
 
CTZALL-160500-
CONNECTICUT
  
CITY           SKY/WX    TMP DP  RH WIND       PRES   REMARKS
BRADLEY INTL   CLEAR     63  56  78 NW3       30.04R                  
HARTFORD       CLEAR     65  58  78 CALM      30.03R                  
BRIDGEPORT     CLEAR     69  60  73 N7        30.02R                  
DANBURY        CLEAR     62  56  80 SW3       30.05R                  
GROTON         CLEAR     61  56  83 N3        30.02R                  
NEW HAVEN      CLEAR     67  60  78 NE5       30.03R                  
CHESTER        FAIR      59  57  94 CALM      30.04R                  
MERIDEN        CLEAR     60  55  83 CALM      30.04R                  
WILLIMANTIC    CLEAR     60  56  86 CALM      30.05R                  
OXFORD         CLEAR     62  57  83 CALM      30.06R                  
$$

MEZ002-015-021-024-NHZ003-005-008-011-012-014-VTZ005-008-160500-
NORTHERN NEW ENGLAND
  
CITY           SKY/WX    TMP DP  RH WIND       PRES   REMARKS
PORTLAND ME    PTCLDY    65  61  87 CALM      30.07R                  
BANGOR ME      PTCLDY    61  57  87 CALM      30.07S                  
CONCORD NH     PTCLDY    63  52  67 CALM      30.06S                  
MANCHESTER NH  MOCLDY    68  54  60 CALM      30.05R                  
NASHUA NH      PTCLDY    63  57  81 CALM      30.06S                  
PORTSMOUTH NH  MOCLDY    64  61  88 CALM      30.05S                  
JAFFREY NH     CLEAR     56  50  80 CALM      30.09R                  
KEENE NH       CLEAR     58  53  84 CALM        N/A                   
BURLINGTON VT  CLEAR     63  55  75 E7        30.05R                  
MT. WASHINGTON MOCLDY    48  43  81 SE10        N/A                   
$$

NYZ052-076-160500-
EASTERN NEW YORK
  
CITY           SKY/WX    TMP DP  RH WIND       PRES   REMARKS
ALBANY         PTCLDY    66  55  67 CALM      30.02R                  
NEW YORK CITY  PTCLDY    72  57  59 NE5       30.00R                  
$$
 
ANZALL-160500-
MARINE OBSERVATIONS
  
STATION/POSITION TIME  TEMP    WIND        PRES    VSBY  WAVE
                       AIR SEA DIR/SP/G                  HT/PER
                 (UTC) (F)     (DEG/KT/KT) (MB)    (MI)  (FT/S)
BOSTON BUOY      NOT AVBL
BUZZARDS BAY     NOT AVBL
NANTUCKET SOUND  NOT AVBL
MASS BAY-STELLWA NOT AVBL
ISLE OF SHOALS   NOT AVBL
S OF BLOCK IS    NOT AVBL
$$

......................KEY.........................
  SKY/WX - SKY CONDITION/PRESENT WEATHER
  TMP    - TEMPERATURE IN FAHRENHEIT
  DWPT   - DEWPOINT IN FAHRENHEIT
  RH     - RELATIVE HUMIDITY IN PERCENT
  WIND   - DIRECTION AND SPEED IN MPH
  PRES   - MEAN SEA LEVEL PRESSURE IN INCHES OF HG
  WCI    - WIND CHILL INDEX
  VSB    - VISIBILITY IN MILES
  HX     - HEAT INDEX
  TC     - TEMPERATURE IN CELSIUS
  VRB    - VARIABLE WIND DIRECTION
  N/A    - NOT AVAILABLE
  
      

Other recent Regional Weather Roundups

Wed Aug 17, 5:10pm

Wed Aug 17, 4:10pm

Wed Aug 17, 3:10pm

Wed Aug 17, 2:10pm

Wed Aug 17, 1:10pm

Wed Aug 17, 12:10pm

Wed Aug 17, 11:10am

Wed Aug 17, 10:10am

Wed Aug 17, 9:10am

Wed Aug 17, 8:10am

Wed Aug 17, 7:10am

Wed Aug 17, 6:10am

Wed Aug 17, 5:10am

Wed Aug 17, 4:10am

Wed Aug 17, 3:10am

Wed Aug 17, 2:10am

Wed Aug 17, 1:10am

Wed Aug 17, 12:10am

Tue Aug 16, 11:10pm

Tue Aug 16, 10:10pm

Tue Aug 16, 9:10pm

Tue Aug 16, 8:10pm

Tue Aug 16, 7:10pm

Tue Aug 16, 6:10pm

Tue Aug 16, 5:10pm

Tue Aug 16, 4:10pm

Tue Aug 16, 3:10pm

Tue Aug 16, 2:10pm

Tue Aug 16, 1:10pm

Tue Aug 16, 12:10pm

Tue Aug 16, 11:10am

Tue Aug 16, 10:10am

Tue Aug 16, 9:10am

Tue Aug 16, 8:10am

Tue Aug 16, 7:10am

Tue Aug 16, 6:10am

Tue Aug 16, 5:10am

Tue Aug 16, 4:10am

Tue Aug 16, 3:10am

Tue Aug 16, 2:10am

Tue Aug 16, 1:10am

Mon Aug 15, 11:10pm

Mon Aug 15, 10:10pm

Mon Aug 15, 9:10pm

Mon Aug 15, 8:10pm

Mon Aug 15, 7:10pm

Mon Aug 15, 6:10pm

Mon Aug 15, 5:10pm

Mon Aug 15, 4:10pm

Mon Aug 15, 3:10pm

Mon Aug 15, 2:10pm

Mon Aug 15, 1:10pm

Mon Aug 15, 12:10pm

Mon Aug 15, 11:10am

Mon Aug 15, 10:10am

Mon Aug 15, 9:10am

Mon Aug 15, 8:10am

Mon Aug 15, 7:10am

Mon Aug 15, 6:10am

Mon Aug 15, 5:10am

Mon Aug 15, 4:10am

Mon Aug 15, 3:10am

Mon Aug 15, 2:10am

Mon Aug 15, 1:10am

Mon Aug 15, 12:10am

Sun Aug 14, 11:10pm

Sun Aug 14, 10:10pm

Sun Aug 14, 9:10pm

Sun Aug 14, 8:10pm

Sun Aug 14, 7:10pm

Sun Aug 14, 6:10pm

Sun Aug 14, 5:10pm

Sun Aug 14, 4:10pm

Sun Aug 14, 3:10pm

Sun Aug 14, 2:10pm

Sun Aug 14, 1:10pm

Sun Aug 14, 12:10pm

Sun Aug 14, 11:10am

Sun Aug 14, 10:10am

Sun Aug 14, 9:10am

Sun Aug 14, 8:10am

Sun Aug 14, 7:10am

Sun Aug 14, 6:10am

Sun Aug 14, 5:10am

Sun Aug 14, 4:10am

Sun Aug 14, 3:10am

Sun Aug 14, 2:10am

Sun Aug 14, 1:10am

Sun Aug 14, 12:10am

Sat Aug 13, 11:10pm

Sat Aug 13, 10:10pm

Sat Aug 13, 9:10pm

Sat Aug 13, 8:10pm

Sat Aug 13, 7:10pm

Sat Aug 13, 6:10pm

Sat Aug 13, 5:10pm

Sat Aug 13, 4:10pm

Sat Aug 13, 3:10pm

Sat Aug 13, 2:10pm

Sat Aug 13, 1:10pm

Sat Aug 13, 12:10pm

Sat Aug 13, 11:10am

Sat Aug 13, 10:10am

Sat Aug 13, 9:10am

Sat Aug 13, 8:10am

Sat Aug 13, 7:10am

Sat Aug 13, 6:10am

Sat Aug 13, 5:10am

Sat Aug 13, 4:10am

Sat Aug 13, 3:10am

Sat Aug 13, 2:10am

Sat Aug 13, 1:10am

Sat Aug 13, 12:10am

Fri Aug 12, 11:10pm

Fri Aug 12, 10:10pm

Fri Aug 12, 9:10pm

Fri Aug 12, 8:10pm

Fri Aug 12, 7:10pm

Fri Aug 12, 6:10pm

Fri Aug 12, 5:10pm

Fri Aug 12, 4:10pm

Fri Aug 12, 3:10pm

Fri Aug 12, 2:10pm

Fri Aug 12, 1:10pm

Fri Aug 12, 12:10pm

Fri Aug 12, 11:10am

Fri Aug 12, 10:10am

Fri Aug 12, 9:10am

Fri Aug 12, 8:10am

Fri Aug 12, 7:10am

Fri Aug 12, 6:10am

Fri Aug 12, 5:10am

Fri Aug 12, 4:10am

Fri Aug 12, 3:10am

Fri Aug 12, 2:10am

Fri Aug 12, 1:10am

Fri Aug 12, 12:10am

Thu Aug 11, 11:10pm

Thu Aug 11, 10:10pm

Thu Aug 11, 9:10pm

Thu Aug 11, 8:10pm

Thu Aug 11, 7:10pm

Thu Aug 11, 6:10pm

Thu Aug 11, 5:10pm

Thu Aug 11, 4:10pm

Thu Aug 11, 3:10pm

Thu Aug 11, 2:10pm

Thu Aug 11, 1:10pm

Thu Aug 11, 12:10pm

Thu Aug 11, 11:10am

Thu Aug 11, 10:10am

Thu Aug 11, 9:10am

Thu Aug 11, 8:10am

Thu Aug 11, 7:10am

Thu Aug 11, 6:10am

Thu Aug 11, 5:10am

Thu Aug 11, 4:10am

Thu Aug 11, 3:10am

Thu Aug 11, 2:10am

Thu Aug 11, 1:10am

Thu Aug 11, 12:10am

Wed Aug 10, 11:10pm

Wed Aug 10, 10:10pm

Wed Aug 10, 9:10pm

Wed Aug 10, 8:10pm

Wed Aug 10, 7:10pm

Wed Aug 10, 6:10pm

Meta data:

ID: 1a75afd8-b2c5-4f75-8cf4-ab32d6decc5d
Link: https://api.weather.gov/products/1a75afd8-b2c5-4f75-8cf4-ab32d6decc5d